FENGYUN 1C DEB, 43359

Orbit data source: Space-Track

FENGYUN 1C DEB, 43359 is space debris in SSO originally from a launch on Mon, 10 May 1999 UTC launched from the Taiyaun Space Center, China (TSC). Fengyun 1C debris stems from the Chinese weather satellite Fengyun-1C, which was intentionally destroyed by a Chinese anti-satellite missile in 2007. This event dramatically increased the amount of space debris, with thousands of trackable fragments posing hazards to satellites and human spaceflight. The Fengyun 1C debris cloud has become a focal point in discussions about space sustainability and the need for international regulations to prevent the creation of new debris.

Loading next visibility...
Identifier
43359, 1999-025EYQ
Orbit
SSO
Country
Flag of CNCN / PRC
Related business
Manufacturer
Unknown
Mission
Spacecraft
Bus & Motor
Unknown
Mass
Unknown
Launch date (UTC)
1999-05-10 (26 years ago)
Launch vehicle
Unknown
Launch site
Taiyaun Space Center, China (TSC)
Object type
Payload
Rocket body
Debris
Shape & HBR
Unknown shape, 0.1 m
Radar Cross Section
Small (<0.1 m²)

Expand to show TLE details & history
Last TLE update: 12 hours ago

TLE from 12 hours ago
0 FENGYUN 1C DEB
1 43359U 99025EYQ 25299.69286211  .00006142  00000-0  26862-2 0  9990
2 43359  99.0566  18.3781 0078457 150.0817 210.4878 14.22493301470800
Epoch: 2025-10-26T16:37Z
TLE epoch observation values (Epoch: 2025-10-26T16:37:43.286Z)
Latitude
-0.00003°
Longitude
93.64234°
Altitude
868.608 km
Speed
7.393 km/s
True Right ascension
01h 13m 30s
True Declination
0° 00' 00"
Sunlit
Object was in full shadow at epoch
Visualization orbit readout
Latitude
Unknown
Longitude
Unknown
Altitude
Unknown
Speed
Unknown
Apparent Right ascension
Unknown
Apparent Declination
Unknown
Sunlit
N/A
Visualization observer readout
Local Sidereal Time
23:56:32
Azimuth
Unknown
Elevation
Unknown
Doppler factor
Unknown
Orbital elements
Apogee altitude
870.533 km
Perigee altitude
757.677 km
Semi-major axis
7,192.242 km
Eccentricity
0.00785
Inclination
99.0566°
RAAN
18.3781°
Arg. of periapsis
150.0817°
True anomaly
210.03549°
Mean anomaly
210.4878°
Eccentric anomaly
210.26126°
Mean motion
3.55833 °/min
Orbital period
101.17 mins
BSTAR
0.0026862
Loading maneuver chart data...
Computing Atmospheric mass density...

Documentation

Showing up to 5 results
|